This is the latest recevied weather packets stored in our database for station/object VE7OTD. If no packets are shown the sender has not sent any weather packets the latest 10 day(s).
| Time | Temp. | Humidity | Pressure | Rain* | Wind** | Luminosity | Snow |
|---|---|---|---|---|---|---|---|
| 1777870235 | 26.11° C | 30% | 1009.4 hPa | 0 mm | - | - | - |
| 1777868420 | 26.11° C | 30% | 1009.3 hPa | 0 mm | - | - | - |
| 1777866621 | 26.11° C | 30% | 1009.1 hPa | 0 mm | - | - | - |
| 1777864806 | 26.11° C | 30% | 1009.3 hPa | 0 mm | - | - | - |
| 1777862975 | 26.11° C | 30% | 1009.5 hPa | 0 mm | - | - | - |
| 1777861160 | 26.11° C | 30% | 1009.7 hPa | 0 mm | - | - | - |
| 1777859345 | 26.11° C | 28% | 1009.9 hPa | 0 mm | - | - | - |
| 1777857530 | 26.67° C | 36% | 1010.2 hPa | 0 mm | - | - | - |
| 1777855715 | 28.33° C | 28% | 1010.4 hPa | 0 mm | - | - | - |
| 1777853900 | 27.78° C | 27% | 1010.7 hPa | 0 mm | - | - | - |
| 1777852072 | 27.22° C | 27% | 1011.1 hPa | 0 mm | - | - | - |
| 1777850270 | 27.78° C | 30% | 1011.4 hPa | 0 mm | - | - | - |
| 1777848455 | 27.22° C | 37% | 1011.8 hPa | 0 mm | - | - | - |
| 1777846639 | 28.33° C | 29% | 1012.2 hPa | 0 mm | - | - | - |
| 1777844824 | 27.78° C | 37% | 1012.6 hPa | 0 mm | - | - | - |
| 1777843009 | 27.22° C | 32% | 1012.8 hPa | 0 mm | - | - | - |
| 1777841194 | 25.56° C | 40% | 1013.1 hPa | 0 mm | - | - | - |
| 1777839361 | 25.56° C | 42% | 1013.5 hPa | 0 mm | - | - | - |
| 1777837519 | 25° C | 43% | 1014 hPa | 0 mm | - | - | - |
| 1777835705 | 23.89° C | 44% | 1014.1 hPa | 0 mm | - | - | - |
| 1777833890 | 23.89° C | 46% | 1014.4 hPa | 0 mm | - | - | - |
| 1777832075 | 22.22° C | 47% | 1014.5 hPa | 0 mm | - | - | - |
| 1777830260 | 22.22° C | 47% | 1014.7 hPa | 0 mm | - | - | - |
| 1777828446 | 21.11° C | 49% | 1014.9 hPa | 0 mm | - | - | - |
| 1777826630 | 20° C | 49% | 1015.4 hPa | 0 mm | - | - | - |
* Rain latest 24 hours (hover to see other rain measurements)
** Current wind speed in m/s (hover to see current wind gust speed)